EW6288 Weather Reports


Display with metric or nautical units.
time (UTC)temp
F
wind
direction
speed
MPH
gust
MPH
rain 1hr
in
rain 24hr
in
rain mn
in
humidity
%
barometer
mb
20260905232516 86 248 0.0 1.0 0.00 0.00 0.00 84 1011.3
20260905232018 86 248 0.0 1.0 0.00 0.00 0.00 83 1011.4
20260905231518 86 248 0.0 1.0 0.00 0.00 0.00 83 1011.3
20260905231016 86 248 0.0 1.0 0.00 0.00 0.00 83 1011.2
20260905230516 87 248 0.0 1.0 0.00 0.00 0.00 82 1011.2
20260905230247 87 248 0.0 1.0 0.00 0.00 0.00 82 1011.1
20260905225518 86 248 0.0 1.0 0.00 0.00 0.00 80 1011.0
20260905225016 86 248 0.0 1.0 0.00 0.00 0.00 80 1011.1
20260905224516 86 248 0.0 2.0 0.00 0.00 0.00 79 1011.0
20260905224012 87 0 0.0 2.0 0.00 0.00 0.00 79 1011.0
20260905223744 87 0 0.0 2.0 0.00 0.00 0.00 79 1011.0
20260905223009 87 0 0.0 2.0 0.00 0.00 0.00 79 1011.0
20260905222513 87 0 0.0 1.0 0.00 0.00 0.00 78 1010.9
20260905222015 88 0 0.0 7.0 0.00 0.00 0.00 78 1011.0
20260905222010 87 0 0.0 7.0 0.00 0.00 0.00 78 1011.0
20260905221013 88 0 1.0 7.0 0.00 0.00 0.00 78 1011.0
20260905220504 88 0 2.0 7.0 0.00 0.00 0.00 77 1011.0
20260905220002 88 239 2.0 7.0 0.00 0.00 0.00 77 1011.0
20260905215730 88 247 2.0 5.0 0.00 0.00 0.00 76 1011.0
20260905215228 88 277 2.0 7.0 0.00 0.00 0.00 76 1011.1
20260905214727 88 263 1.0 7.0 0.00 0.00 0.00 75 1011.0
20260905213954 88 265 0.0 2.0 0.00 0.00 0.00 75 1011.0
20260905213449 88 290 1.0 3.0 0.00 0.00 0.00 74 1011.1
20260905213217 88 323 2.0 10.0 0.00 0.00 0.00 74 1011.3
20260905212718 89 19 2.0 10.0 0.00 0.00 0.00 73 1011.4
20260905211943 89 30 1.0 7.0 0.00 0.00 0.00 73 1011.3
20260905211714 90 298 1.0 4.0 0.00 0.00 0.00 72 1011.3
20260905210941 91 146 1.0 2.0 0.00 0.00 0.00 69 1011.3
20260905210439 91 146 0.0 5.0 0.00 0.00 0.00 68 1011.3
20260905210209 92 146 1.0 5.0 0.00 0.00 0.00 67 1011.3
20260905205437 92 155 2.0 5.0 0.00 0.00 0.00 66 1011.1
20260905204937 92 133 2.0 5.0 0.00 0.00 0.00 67 1011.0
20260905204434 93 201 1.0 5.0 0.00 0.00 0.00 67 1011.0
20260905203935 93 154 1.0 5.0 0.00 0.00 0.00 65 1011.1
20260905203433 93 123 1.0 3.0 0.00 0.00 0.00 67 1011.1
20260905203204 93 101 1.0 3.0 0.00 0.00 0.00 65 1011.2
20260905202435 93 133 1.0 3.0 0.00 0.00 0.00 65 1011.4
20260905202430 93 137 1.0 5.0 0.00 0.00 0.00 68 1011.4
20260905201429 93 70 1.0 5.0 0.00 0.00 0.00 68 1011.3
20260905200928 92 103 2.0 5.0 0.00 0.00 0.00 69 1011.4
20260905200426 93 146 1.0 6.0 0.00 0.00 0.00 68 1011.5
20260905195927 92 121 1.0 6.0 0.00 0.00 0.00 68 1011.7
20260905195425 92 101 2.0 6.0 0.00 0.00 0.00 68 1011.8
20260905194926 92 131 2.0 6.0 0.00 0.00 0.00 68 1011.9
20260905194425 91 181 2.0 7.0 0.00 0.00 0.00 70 1011.9
20260905193925 91 150 2.0 9.0 0.00 0.00 0.00 69 1011.8
20260905193425 92 123 3.0 9.0 0.00 0.00 0.00 68 1011.9
20260905192923 92 146 3.0 9.0 0.00 0.00 0.00 69 1012.0
20260905192421 92 30 2.0 10.0 0.00 0.00 0.00 69 1012.1
20260905192153 92 194 2.0 10.0 0.00 0.00 0.00 70 1012.1
20260905191655 91 161 3.0 10.0 0.00 0.00 0.00 72 1012.2
20260905191151 90 140 3.0 10.0 0.00 0.00 0.00 71 1012.3
20260905190422 91 136 3.0 9.0 0.00 0.00 0.00 70 1012.3
20260905185915 92 130 3.0 9.0 0.00 0.00 0.00 69 1012.4
20260905185417 92 125 4.0 9.0 0.00 0.00 0.00 69 1012.4
20260905184918 91 150 4.0 10.0 0.00 0.00 0.00 70 1012.5
20260905184416 91 132 3.0 10.0 0.00 0.00 0.00 71 1012.5
20260905183916 90 135 2.0 8.0 0.00 0.00 0.00 72 1012.5
20260905183416 89 101 1.0 5.0 0.00 0.00 0.00 75 1012.6
20260905182916 89 143 2.0 8.0 0.00 0.00 0.00 75 1012.7
20260905182415 89 223 1.0 8.0 0.00 0.00 0.00 73 1012.7
20260905182150 89 348 0.0 1.0 0.00 0.00 0.00 70 1012.9
20260905181415 90 348 0.0 1.0 0.00 0.00 0.00 68 1012.8
20260905180915 90 348 0.0 1.0 0.00 0.00 0.00 66 1013.0
20260905180417 91 348 0.0 5.0 0.00 0.00 0.00 69 1013.1
20260905175917 91 348 1.0 5.0 0.00 0.00 0.00 70 1013.2
20260905175646 91 321 2.0 5.0 0.00 0.00 0.00 67 1013.1
20260905174916 92 277 1.0 5.0 0.00 0.00 0.00 68 1013.1
20260905174416 91 123 2.0 5.0 0.00 0.00 0.00 66 1013.3
20260905173916 91 122 2.0 6.0 0.00 0.00 0.00 68 1013.4
20260905173415 91 116 2.0 6.0 0.00 0.00 0.00 67 1013.5
20260905172915 91 255 1.0 6.0 0.00 0.00 0.00 69 1013.6
20260905172416 91 251 2.0 6.0 0.00 0.00 0.00 70 1013.6
20260905171915 91 251 2.0 6.0 0.00 0.00 0.00 72 1013.7
20260905171417 91 249 3.0 7.0 0.00 0.00 0.00 72 1013.7
20260905171149 90 251 2.0 7.0 0.00 0.00 0.00 74 1013.7
20260905170416 90 254 1.0 4.0 0.00 0.00 0.00 76 1013.7
20260905165916 90 297 1.0 3.0 0.00 0.00 0.00 74 1013.7
20260905165418 90 0 1.0 4.0 0.00 0.00 0.00 74 1013.7
20260905165142 90 5 1.0 4.0 0.00 0.00 0.00 73 1013.7
20260905164414 89 82 1.0 3.0 0.00 0.00 0.00 76 1013.8
20260905163911 89 112 1.0 3.0 0.00 0.00 0.00 76 1013.9
20260905163413 88 130 1.0 3.0 0.00 0.00 0.00 77 1013.9
20260905162912 87 95 0.0 2.0 0.00 0.00 0.00 80 1014.0
20260905162411 85 71 0.0 0.0 0.00 0.00 0.00 82 1014.0
20260905161909 84 71 0.0 0.0 0.00 0.00 0.00 86 1014.0
20260905161639 83 71 0.0 2.0 0.00 0.00 0.00 87 1013.9
20260905160917 83 71 0.0 2.0 0.00 0.00 0.00 87 1013.9
20260905160409 83 71 1.0 2.0 0.00 0.00 0.00 87 1014.0
20260905155911 83 71 1.0 2.0 0.00 0.00 0.00 87 1014.0
20260905155411 83 56 0.0 2.0 0.00 0.00 0.00 88 1013.9
20260905154909 83 14 0.0 3.0 0.00 0.00 0.00 88 1013.9
20260905154409 83 14 0.0 3.0 0.00 0.00 0.00 88 1014.0
20260905153911 83 17 1.0 3.0 0.00 0.00 0.00 89 1013.9
20260905153410 83 17 1.0 3.0 0.00 0.00 0.00 89 1014.0
20260905152908 83 355 1.0 3.0 0.00 0.00 0.00 89 1014.0
20260905152410 82 351 1.0 3.0 0.00 0.00 0.00 89 1014.0
20260905151909 82 349 2.0 4.0 0.00 0.00 0.00 89 1014.0
20260905151641 82 322 1.0 4.0 0.00 0.00 0.00 89 1014.0
20260905150910 82 187 1.0 4.0 0.00 0.00 0.00 90 1014.1
20260905150408 82 175 1.0 4.0 0.00 0.00 0.00 90 1014.0
20260905150141 82 148 0.0 2.0 0.00 0.00 0.00 89 1014.0
20260905145643 82 240 0.0 3.0 0.00 0.00 0.00 90 1014.0
20260905144908 82 240 1.0 3.0 0.00 0.00 0.00 90 1014.0
20260905144407 82 240 1.0 4.0 0.00 0.00 0.00 90 1014.1
20260905144139 82 243 1.0 4.0 0.00 0.00 0.00 90 1013.9
20260905143637 82 171 0.0 2.0 0.00 0.00 0.00 90 1013.9
20260905142906 82 171 0.0 2.0 0.00 0.00 0.00 89 1013.9
20260905142410 82 165 0.0 1.0 0.00 0.00 0.00 89 1014.0
20260905142405 82 165 0.0 2.0 0.00 0.00 0.00 89 1013.9
20260905141404 82 165 0.0 0.0 0.00 0.00 0.00 89 1013.9
20260905140905 81 165 0.0 0.0 0.00 0.00 0.00 89 1013.9
20260905140406 81 153 0.0 0.0 0.00 0.00 0.00 89 1013.9
20260905135906 81 153 0.0 0.0 0.00 0.00 0.00 89 1013.8
20260905135402 81 0 0.0 0.0 0.00 0.00 0.00 89 1013.8
20260905134905 81 0 0.0 0.0 0.00 0.00 0.00 89 1013.7
20260905134405 81 0 0.0 0.0 0.00 0.00 0.00 89 1013.7
20260905134131 80 0 0.0 0.0 0.00 0.00 0.00 89 1013.7
20260905133401 80 0 0.0 0.0 0.00 0.00 0.00 89 1013.7
20260905132902 80 0 0.0 0.0 0.00 0.00 0.00 89 1013.7
20260905132632 80 0 0.0 0.0 0.00 0.00 0.00 89 1013.7
20260905131902 80 0 0.0 0.0 0.00 0.00 0.00 89 1013.7
20260905131403 80 0 0.0 0.0 0.00 0.00 0.00 88 1013.6
20260905130857 80 0 0.0 0.0 0.00 0.00 0.00 88 1013.7
20260905130355 79 0 0.0 0.0 0.00 0.00 0.00 88 1013.7
20260905125856 79 0 0.0 0.0 0.00 0.00 0.00 88 1013.7
20260905125353 79 0 0.0 0.0 0.00 0.00 0.00 88 1013.6
20260905124851 79 0 0.0 0.0 0.00 0.00 0.00 88 1013.6
20260905124352 79 0 0.0 0.0 0.00 0.00 0.00 88 1013.5
20260905123849 79 0 0.0 0.0 0.00 0.00 0.00 88 1013.4
20260905123349 79 0 0.0 0.0 0.00 0.00 0.00 88 1013.4
20260905122849 79 0 0.0 0.0 0.00 0.00 0.00 88 1013.2
20260905122616 79 0 0.0 0.0 0.00 0.00 0.00 88 1013.1
20260905121844 79 0 0.0 0.0 0.00 0.00 0.00 88 1013.2
20260905121344 79 0 0.0 0.0 0.00 0.00 0.00 88 1013.2
20260905120844 79 0 0.0 0.0 0.00 0.00 0.00 88 1013.1
20260905120342 79 0 0.0 0.0 0.00 0.00 0.00 88 1013.0
20260905120111 79 0 0.0 0.0 0.00 0.00 0.00 88 1013.0
20260905115337 79 0 0.0 0.0 0.00 0.00 0.00 88 1012.9
20260905114835 79 0 0.0 0.0 0.00 0.00 0.00 88 1012.8
20260905114337 79 0 0.0 0.0 0.00 0.00 0.00 88 1012.8
20260905113835 79 0 0.0 0.0 0.00 0.00 0.00 88 1012.7
20260905113336 79 0 0.0 0.0 0.00 0.00 0.00 88 1012.6
20260905113106 79 0 0.0 0.0 0.00 0.00 0.00 88 1012.5
20260905112335 79 0 0.0 0.0 0.00 0.00 0.00 87 1012.5
20260905111834 79 0 0.0 0.0 0.00 0.00 0.00 87 1012.5
20260905111332 79 0 0.0 0.0 0.00 0.00 0.00 87 1012.4
20260905110826 79 0 0.0 0.0 0.00 0.00 0.00 87 1012.4
20260905110327 80 0 0.0 0.0 0.00 0.00 0.00 87 1012.3
20260905105832 80 0 0.0 0.0 0.00 0.00 0.00 87 1012.2
20260905105828 80 0 0.0 0.0 0.00 0.00 0.00 87 1012.2
20260905104826 80 0 0.0 0.0 0.00 0.00 0.00 87 1012.2
20260905104323 80 0 0.0 0.0 0.00 0.00 0.00 87 1012.1
20260905104051 80 0 0.0 0.0 0.00 0.00 0.00 87 1012.2
20260905103552 80 0 0.0 0.0 0.00 0.00 0.00 87 1012.2
20260905102818 80 0 0.0 0.0 0.00 0.00 0.00 87 1012.3
20260905102321 80 0 0.0 0.0 0.00 0.00 0.00 87 1012.2
20260905101816 80 0 0.0 0.0 0.00 0.00 0.00 87 1012.3
20260905101544 80 0 0.0 0.0 0.00 0.00 0.00 87 1012.3
20260905100812 80 0 0.0 0.0 0.00 0.00 0.00 87 1012.4
20260905100311 80 0 0.0 0.0 0.00 0.00 0.00 87 1012.4
20260905095810 80 0 0.0 0.0 0.00 0.00 0.00 87 1012.4
20260905095305 80 0 0.0 0.0 0.00 0.00 0.00 87 1012.4
20260905094800 80 0 0.0 0.0 0.00 0.00 0.00 87 1012.3
20260905094258 80 0 0.0 0.0 0.00 0.00 0.00 87 1012.3
20260905093757 80 0 0.0 0.0 0.00 0.00 0.00 87 1012.3
20260905093257 80 0 0.0 0.0 0.00 0.00 0.00 87 1012.3
20260905092759 80 0 0.0 0.0 0.00 0.00 0.00 87 1012.2
20260905092259 80 0 0.0 0.0 0.00 0.00 0.00 87 1012.2
20260905091756 80 0 0.0 0.0 0.00 0.00 0.00 87 1012.2
20260905091256 80 0 0.0 0.0 0.00 0.00 0.00 87 1012.2
20260905090756 80 0 0.0 0.0 0.00 0.00 0.00 87 1012.2
20260905090256 80 0 0.0 0.0 0.00 0.00 0.00 87 1012.1
20260905085756 80 0 0.0 0.0 0.00 0.00 0.00 87 1012.1
20260905085256 80 0 0.0 0.0 0.00 0.00 0.00 87 1012.2
20260905085029 80 0 0.0 0.0 0.00 0.00 0.00 87 1012.1
20260905084256 80 0 0.0 0.0 0.00 0.00 0.00 87 1012.1
20260905083755 80 0 0.0 0.0 0.00 0.00 0.00 86 1012.1
20260905083528 80 0 0.0 0.0 0.00 0.00 0.00 86 1012.1
20260905082754 80 0 0.0 0.0 0.00 0.00 0.00 86 1012.1
20260905082251 80 0 0.0 0.0 0.00 0.00 0.00 87 1012.1
20260905081752 80 0 0.0 0.0 0.00 0.00 0.00 87 1012.0
20260905081249 80 0 0.0 0.0 0.00 0.00 0.00 87 1012.1
20260905080749 81 0 0.0 0.0 0.00 0.00 0.00 86 1012.1
20260905080252 81 0 0.0 0.0 0.00 0.00 0.00 87 1012.1
20260905075751 81 0 0.0 0.0 0.00 0.00 0.00 86 1012.2
20260905075249 81 0 0.0 0.0 0.00 0.00 0.00 86 1012.2
20260905074750 81 0 0.0 0.0 0.00 0.00 0.00 87 1012.2
20260905074519 81 0 0.0 0.0 0.00 0.00 0.00 86 1012.2
20260905074021 81 0 0.0 0.0 0.00 0.00 0.00 86 1012.3
20260905073249 81 0 0.0 0.0 0.00 0.00 0.00 87 1012.4
20260905073022 81 0 0.0 0.0 0.00 0.00 0.00 86 1012.5
20260905072249 81 0 0.0 0.0 0.00 0.00 0.00 87 1012.5
20260905072025 81 0 0.0 0.0 0.00 0.00 0.00 86 1012.5
20260905071248 81 0 0.0 0.0 0.00 0.00 0.00 86 1012.6
20260905070748 81 0 0.0 0.0 0.00 0.00 0.00 86 1012.5
20260905070522 81 0 0.0 0.0 0.00 0.00 0.00 86 1012.6
20260905065749 81 0 0.0 0.0 0.00 0.00 0.00 86 1012.7
20260905065248 81 0 0.0 0.0 0.00 0.00 0.00 86 1012.6
20260905064749 81 0 0.0 0.0 0.00 0.00 0.00 86 1012.6
20260905064248 81 0 0.0 0.0 0.00 0.00 0.00 86 1012.5
20260905064017 81 0 0.0 0.0 0.00 0.00 0.00 86 1012.7
20260905063246 82 0 0.0 0.0 0.00 0.00 0.00 86 1012.8
20260905062743 82 0 0.0 0.0 0.00 0.00 0.00 86 1012.8
20260905062244 82 0 0.0 0.0 0.00 0.00 0.00 86 1012.9
20260905061743 82 0 0.0 0.0 0.00 0.00 0.00 86 1013.0
20260905061516 82 0 0.0 0.0 0.00 0.00 0.00 86 1012.9
20260905061014 82 0 0.0 3.0 0.00 0.00 0.00 86 1012.9
20260905060244 82 0 0.0 3.0 0.00 0.00 0.00 86 1012.8
20260905055744 82 0 0.0 3.0 0.00 0.00 0.00 86 1012.8
20260905055247 82 0 0.0 3.0 0.00 0.00 0.00 86 1012.8
20260905054739 82 0 0.0 1.0 0.00 0.00 0.00 86 1012.9
20260905054509 82 0 0.0 1.0 0.00 0.00 0.00 86 1012.9
20260905053740 82 0 0.0 1.0 0.00 0.00 0.00 86 1013.0
20260905053240 82 0 0.0 2.0 0.00 0.00 0.00 86 1013.0
20260905052740 82 0 0.0 2.0 0.00 0.00 0.00 86 1013.1
20260905052240 82 0 0.0 2.0 0.00 0.00 0.00 86 1013.0
20260905051740 82 0 0.0 2.0 0.00 0.00 0.00 85 1013.1
20260905051240 82 0 0.0 1.0 0.00 0.00 0.00 85 1013.1
20260905050741 82 0 0.0 1.0 0.00 0.00 0.00 85 1013.0
20260905050240 82 0 0.0 1.0 0.00 0.00 0.00 85 1013.0
20260905045739 82 0 0.0 1.0 0.00 0.00 0.00 85 1013.0
20260905045240 82 0 0.0 1.0 0.00 0.00 0.00 85 1013.0
20260905045009 82 0 0.0 1.0 0.00 0.00 0.00 85 1013.0
20260905044240 82 0 0.0 1.0 0.00 0.00 0.00 85 1013.0
20260905043739 82 0 0.0 1.0 0.00 0.00 0.00 85 1013.0
20260905043509 82 0 0.0 1.0 0.00 0.00 0.00 86 1013.0
20260905042739 82 0 0.0 1.0 0.00 0.00 0.00 86 1013.0
20260905042238 82 0 0.0 1.0 0.00 0.00 0.00 86 1013.0
20260905041734 82 0 0.0 2.0 0.00 0.00 0.00 86 1013.0
20260905041234 82 0 0.0 2.0 0.00 0.00 0.00 86 1013.0
20260905041002 82 0 0.0 2.0 0.00 0.00 0.00 86 1013.1
20260905040232 82 0 1.0 3.0 0.00 0.00 0.00 85 1013.1
20260905035730 82 0 1.0 3.0 0.00 0.00 0.00 85 1013.2
20260905035229 82 0 0.0 3.0 0.00 0.00 0.00 85 1013.2
20260905034730 82 0 0.0 1.0 0.00 0.00 0.00 85 1013.3
20260905034459 82 0 0.0 1.0 0.00 0.00 0.00 85 1013.3
20260905033726 82 0 0.0 3.0 0.00 0.00 0.00 85 1013.3
20260905033229 82 0 0.0 4.0 0.00 0.00 0.00 85 1013.3
20260905032726 82 0 0.0 4.0 0.00 0.00 0.00 85 1013.2
20260905032220 82 0 1.0 4.0 0.00 0.00 0.00 85 1013.3
20260905032216 82 0 1.0 4.0 0.00 0.00 0.00 85 1013.3
20260905031214 82 0 1.0 3.0 0.00 0.00 0.00 85 1013.3
20260905030713 82 0 0.0 3.0 0.00 0.00 0.00 85 1013.3
20260905030213 82 0 0.0 3.0 0.00 0.00 0.00 85 1013.3
20260905025714 82 0 1.0 3.0 0.00 0.00 0.00 85 1013.2
20260905025214 82 0 1.0 3.0 0.00 0.00 0.00 84 1013.3
20260905024711 82 0 1.0 3.0 0.00 0.00 0.00 84 1013.2
20260905024440 82 0 1.0 3.0 0.00 0.00 0.00 83 1013.2
20260905023711 82 0 0.0 1.0 0.00 0.00 0.00 83 1013.0
20260905023706 82 0 0.0 1.0 0.00 0.00 0.00 83 1013.1
20260905022702 82 0 0.0 1.0 0.00 0.00 0.00 82 1013.0
20260905022202 82 0 0.0 1.0 0.00 0.00 0.00 82 1013.0
20260905021658 82 0 0.0 2.0 0.00 0.00 0.00 82 1013.0
20260905021157 82 0 0.0 2.0 0.00 0.00 0.00 82 1012.8
20260905020656 82 0 0.0 1.0 0.00 0.00 0.00 81 1012.8
20260905020151 83 0 0.0 1.0 0.00 0.00 0.00 81 1012.9
20260905015920 83 0 0.0 1.0 0.00 0.00 0.00 81 1012.8
20260905015148 83 0 0.0 1.0 0.00 0.00 0.00 80 1012.6
20260905014644 83 0 0.0 1.0 0.00 0.00 0.00 80 1012.6
20260905014146 83 0 0.0 1.0 0.00 0.00 0.00 80 1012.5
20260905013916 84 0 0.0 1.0 0.00 0.00 0.00 80 1012.5
20260905013409 84 0 0.0 1.0 0.00 0.00 0.00 80 1012.3
20260905012911 84 0 0.0 2.0 0.00 0.00 0.00 80 1012.2
20260905012411 85 0 1.0 5.0 0.00 0.00 0.00 80 1012.2
20260905011637 85 0 1.0 5.0 0.00 0.00 0.00 80 1012.3
20260905011135 86 0 1.0 3.0 0.00 0.00 0.00 80 1012.2
20260905010634 86 0 1.0 3.0 0.00 0.00 0.00 79 1012.3
20260905010134 86 0 1.0 3.0 0.00 0.00 0.00 79 1012.3
20260905005901 87 0 1.0 3.0 0.00 0.00 0.00 79 1012.3
20260905005132 87 0 0.0 3.0 0.00 0.00 0.00 79 1012.2
20260905004630 88 0 0.0 2.0 0.00 0.00 0.00 79 1012.2
20260905004134 88 0 0.0 2.0 0.00 0.00 0.00 78 1012.2
20260905003629 89 0 0.0 2.0 0.00 0.00 0.00 77 1012.1
20260905003128 89 0 0.0 3.0 0.00 0.00 0.00 76 1012.1
20260905002626 89 0 1.0 3.0 0.00 0.00 0.00 76 1012.1
20260905002123 90 0 1.0 3.0 0.00 0.00 0.00 76 1011.9
20260905001853 90 0 2.0 8.0 0.00 0.00 0.00 74 1011.7
20260905001123 90 84 2.0 8.0 0.00 0.00 0.00 72 1011.5
20260905000623 90 128 2.0 9.0 0.00 0.00 0.00 71 1011.5
20260905000355 90 121 2.0 9.0 0.00 0.00 0.00 71 1011.6
20260904235620 90 141 2.0 9.0 0.00 0.00 0.00 71 1011.6
20260904235120 90 167 3.0 9.0 0.00 0.00 0.00 71 1011.5
20260904234617 90 155 3.0 9.0 0.00 0.00 0.00 72 1011.5
20260904234119 90 163 2.0 7.0 0.00 0.00 0.00 72 1011.4
20260904233620 91 216 2.0 6.0 0.00 0.00 0.00 72 1011.5
20260904233116 91 152 2.0 6.0 0.00 0.00 0.00 72 1011.4